188  
ASUS45 KCYS 261210  
RWRWY  
 
WYOMING REGIONAL WEATHER ROUNDUP  
NATIONAL WEATHER SERVICE CHEYENNE WY  
600 AM MDT SUN MAY 26 2024  
 
NOTE: "FAIR" INDICATES FEW OR NO CLOUDS BELOW 12,000 FEET  
WITH NO SIGNIFICANT WEATHER AND/OR S TO VISIBILITY
.  
 
WYZ001-261300-  
YELLOWSTONE NATIONAL PARK  
 
CITY SKY/WX TMP DP RH WIND PRES REMARKS
 
LK YELLOWSTONE N/A 32 31 96 CALM 29.98R  
6HR MIN TEMP: 32; 6HR MAX TEMP: 35; 6HR PCP: 0.21;  
 
W YELLOWSTONE NOT AVBL  
 

 
WYZ002>013-054>058-071-098>099-261300-  
NORTHERN WYOMING  
 
CITY SKY/WX TMP DP RH WIND PRES REMARKS
 
JACKSON CLOUDY 43 28 55 S12 29.96R  
CODY CLOUDY 49 36 61 NW9G16 29.87R  
GREYBULL LGT RAIN 50 44 80 CALM 29.81R  
6HR MIN TEMP: 49; 6HR MAX TEMP: 54; 6HR PCP: TRACE;  
 
WORLAND CLOUDY 47 45 93 CALM 29.80R  
6HR MIN TEMP: 45; 6HR MAX TEMP: 53; 6HR PCP: 0.01;  
 
SHERIDAN FAIR 41 38 89 CALM 29.80R  
6HR MIN TEMP: 40; 6HR MAX TEMP: 50;  
 
BUFFALO FAIR 42 39 89 SW8 29.80R  
6HR MIN TEMP: 42; 6HR MAX TEMP: 51;  
 
GILLETTE FAIR 45 41 86 CALM 29.77  
6HR MIN TEMP: 43; 6HR MAX TEMP: 48;  
 
HULETT MOCLDY 46 43 87 CALM 29.78R  
NEWCASTLE MOCLDY 46 39 76 SE6 29.76S  
 

 
WYZ014>020-022>026-101>103-261300-  
CENTRAL WYOMING  
 
CITY SKY/WX TMP DP RH WIND PRES REMARKS
 
BIG PINEY FAIR 39 28 64 NW6 29.99R WCI 35  
6HR MIN TEMP: 34; 6HR MAX TEMP: 42;  
 
PINEDALE MOCLDY 34 32 93 SW3 30.00R  
DUBOIS CLOUDY 37 28 70 NW12 29.93R WCI 30  
LANDER FAIR 44 31 60 CALM 29.85R  
6HR MIN TEMP: 43; 6HR MAX TEMP: 51;  
 
RIVERTON FAIR 43 31 62 SW8 29.86R  
6HR MIN TEMP: 41; 6HR MAX TEMP: 52;  
 
CASPER MOCLDY 45 38 76 SW12 29.84R  
6HR MIN TEMP: 45; 6HR MAX TEMP: 48;  
 
DOUGLAS FAIR 43 39 86 NW10 29.81R  
6HR MIN TEMP: 43; 6HR MAX TEMP: 50;  
 

 
WYZ021-027>030-104>119-261300-  
SOUTHERN WYOMING  
 
CITY SKY/WX TMP DP RH WIND PRES REMARKS
 
EVANSTON FAIR 36 32 85 SW13 30.04R WCI 27  
6HR MIN TEMP: 35; 6HR MAX TEMP: 39;  
 
KEMMERER MOCLDY 36 32 87 CALM 30.03R  
ROCK SPRINGS MOCLDY 38 34 85 SW10 30.01R WCI 31  
6HR MIN TEMP: 38; 6HR MAX TEMP: 42;  
 
DIXON FAIR 39 36 89 NW3 30.06R  
RAWLINS FAIR 39 33 79 SW16G25 29.96R WCI 30  
6HR MIN TEMP: 39; 6HR MAX TEMP: 43;  
 
SARATOGA FAIR 37 37 100 SW10 30.01R WCI 30  
LARAMIE FAIR 41 32 70 W20G26 29.94R  
6HR MIN TEMP: 38; 6HR MAX TEMP: 43; 6HR PCP: TRACE;  
 
CHEYENNE FAIR 46 34 62 W16 29.88R  
6HR MIN TEMP: 46; 6HR MAX TEMP: 48;  
 
TORRINGTON FAIR 49 41 74 W5 29.79R  
6HR MIN TEMP: 49; 6HR MAX TEMP: 53;  
 
PINE BLUFFS N/A 50 36 57 NW21G31 29.84R  
 

 
 
 
CLICK HERE TO GO TO PREVIOUS BULLETINS.

The Nexlab WY Page Main Text Page